Location: Nelson
(41.2830°S, 173.2830°E)
Time: 04:37:03
(UTC+13:00)

Cosmos 1862 - Pass Details

Date: 24 January 2019
Orbit: 540 x 556 km, 82.5° (Epoch: 22 February)

Event Time Altitude Azimuth Distance (km) Brightness Sun altitude
Rises 22:22:26 0° 190° (S) 2,757 7.8 -14.3°
Reaches altitude 10° 22:24:38 10° 190° (S) 1,851 6.8 -14.6°
Maximum altitude 22:28:43 80° 276° (W) 568 3.4 -15.2°
Enters shadow 22:31:29 19° 1° (N) 1,326 4.9 -15.5°
